Overview Statistics Trail Chart Weather Telemetry Raw packets
 

This is the latest recevied weather packets stored in our database for station/object HS5AU-13. If no packets are shown the sender has not sent any weather packets the latest 10 day(s).

<< 42 43 44 45 46 47 48 >>
Time Temp. Humidity Pressure Rain* Wind** Luminosity Snow
1787927099 24.44° C 87% 1002 hPa 0 mm - 2 W/m² -
1787926499 23.89° C 90% 1001.2 hPa 0 mm - 2 W/m² -
1787925899 23.89° C 93% 1001 hPa 0 mm - 2 W/m² -
1787925299 23.33° C 94% 1000.5 hPa 0 mm - 2 W/m² -
1787924699 23.89° C 93% 1000.4 hPa 0 mm - 2 W/m² -
1787924099 23.89° C 91% 1000.5 hPa 0 mm - 2 W/m² -
1787923499 23.89° C 91% 1000.5 hPa 0 mm - 2 W/m² -
1787922899 23.89° C 90% 1000.4 hPa 0 mm - 2 W/m² -
1787922299 23.89° C 91% 1000.1 hPa 0 mm - 2 W/m² -
1787921699 23.89° C 91% 999.9 hPa 0 mm - 2 W/m² -
1787921099 23.89° C 92% 999.5 hPa 0 mm - 2 W/m² -
1787920499 23.89° C 92% 999.5 hPa 0 mm - 2 W/m² -
1787919899 23.89° C 93% 999.3 hPa 0 mm - 2 W/m² -
1787919299 23.89° C 93% 999.1 hPa 0 mm - 2 W/m² -
1787918699 23.89° C 92% 999 hPa 0 mm - 2 W/m² -
1787918099 23.89° C 92% 999 hPa 0 mm - 2 W/m² -
1787917499 24.44° C 91% 998.9 hPa 0 mm - 2 W/m² -
1787916899 24.44° C 91% 998.7 hPa 0 mm - 2 W/m² -
1787916299 24.44° C 90% 998.6 hPa 0 mm - 6 W/m² -
1787915699 24.44° C 91% 998.4 hPa 0 mm - 23 W/m² -
1787915099 25° C 90% 998.4 hPa 0 mm - 20 W/m² -
1787914499 25° C 91% 998.2 hPa 0 mm - 34 W/m² -
1787913899 25° C 90% 998.3 hPa 0 mm - 52 W/m² -
1787913299 25° C 89% 998.2 hPa 0 mm - 56 W/m² -
1787912699 25° C 89% 998.1 hPa 0 mm - 55 W/m² -

* Rain latest hour (hover to see other rain measurements)
** Current wind speed in m/s (hover to see current wind gust speed)